Flag for U.S.A. Weather past 2 weeks in Redmond, Washington, U.S.A.

Now
56 °F

Partly sunny.


Feels Like: 52 °F
Forecast: 51 / 59 °F
Wind: 14 mph from South

Location: Seattle Boeing Field

Current Time: Mar 28, 2015 at 10:58:03 AM

Latest Report: Mar 28, 2015 at 9:53 AM


Visibility: 10 mi

Pressure: 30.30 "Hg

Humidity: 65%

Dew point: 44 °F

Location of RedmondLocation

Historic Weather in Redmond — Graph

°F

Redmond temperature yesterday

Maximum temperature yesterday: 68 °F (at 2:53 PM)
Minimum temperature yesterday: 50 °F (at 6:53 AM)
Average temperature yesterday: 59 °F

Past Weeks' High & Low Weather Summary

 TemperatureHumidityPressure
High71 °F (Mar 26, 3:53 PM)89% (Mar 23, 3:53 AM)30.31 "Hg (Mar 23, 3:53 AM)
Low43 °F (Mar 23, 7:00 AM)39% (Mar 26, 4:53 PM)29.62 "Hg (Mar 15, 4:53 PM)
Average54 °F72%30.06 "Hg
* Reported Mar 13 8:53 AM — Mar 28 8:53 AM, Redmond, Weather by CustomWeather, © 2015

Note: Actual official high and low records may vary slightly from our data, if they occured in-between our weather recording intervals... More about our weather records

Advertising

Redmond weather history for previous 24 hours

 ConditionsComfort  
Time TempWeatherWind HumidityBarometerVisibility
8:53 AM
Sat, Mar 28
54 °FPartly sunny.12 mph67%30.27 "Hg10 mi
7:53 AM52 °FPassing clouds.8 mph72%30.23 "Hg10 mi
6:53 AM52 °FPassing clouds.12 mph72%30.18 "Hg10 mi
5:53 AM52 °FClear.12 mph72%30.12 "Hg10 mi
4:53 AM53 °FPassing clouds.16 mph69%30.09 "Hg10 mi
3:53 AM53 °FPartly cloudy.13 mph72%30.09 "Hg10 mi
3:03 AM54 °FPassing clouds.14 mph72%30.08 "Hg10 mi
2:53 AM53 °FPassing clouds.13 mph72%30.08 "Hg10 mi
1:53 AM53 °FPassing clouds.16 mph72%30.06 "Hg10 mi
12:56 AM54 °FPartly cloudy.13 mph77%30.05 "Hg10 mi
11:53 PM
Fri, Mar 27
54 °FMostly cloudy.13 mph74%30.04 "Hg10 mi
10:53 PM55 °FLight rain. Overcast.12 mph74%30.03 "Hg10 mi
9:53 PM57 °FPartly cloudy.15 mph72%30.01 "Hg10 mi
8:53 PM60 °FMostly cloudy.8 mph65%29.96 "Hg10 mi
7:53 PM59 °FBroken clouds.7 mph67%29.95 "Hg10 mi
6:53 PM61 °FPartly sunny.9 mph62%29.95 "Hg10 mi
5:53 PM65 °FScattered clouds.9 mph54%29.95 "Hg10 mi
4:53 PM66 °FBroken clouds.9 mph52%29.94 "Hg10 mi
3:53 PM68 °FBroken clouds.6 mph51%29.95 "Hg10 mi
2:53 PM68 °FBroken clouds.7 mph55%29.96 "Hg10 mi
1:53 PM67 °FBroken clouds.8 mph57%29.98 "Hg10 mi
12:53 PM67 °FBroken clouds.7 mph59%30.01 "Hg10 mi
11:53 AM65 °FBroken clouds.10 mph61%30.02 "Hg10 mi
10:53 AM62 °FPartly sunny.8 mph67%30.03 "Hg10 mi
Weather by CustomWeather, © 2015

See weather overviewHow to use our weather pages